[[{"header":{"parameterUnit":"m.s-1","parameterCategory":1,"la1":30.2991,"la2":30.254,"lo1":-89.0895,"lo2":-89.0444,"dy":0.0017,"dx":0.0017,"nx":28,"ny":28,"refTime":"2025-02-11T03:00:00:Z","depth":0,"parameterNumber":2,"parameterNumberName":"U-component_of_WINDS"},"data":[0,0,0,0,0,0,0,0,0,0,0,0,0,0,0,0,0,0,0,0,0,0,0,0,0,0,0,0,0,0,0,0,0,0,0,0,0,0,0,0,0,0,0,0,0,0,0,0,0,0,0,0,0,0,0,0,0,0,-3.1602,-3.1602,0,-3.1617,-3.1617,-3.1617,-3.155,-3.1548,-3.1546,-3.1545,-3.1563,-3.1565,-3.1567,0,0,0,0,0,0,0,0,0,0,0,0,0,-3.1521,-3.1522,-3.1602,-3.1602,-3.1603,-3.1617,-3.1617,-3.1617,-3.1551,-3.1548,-3.1546,-3.1544,-3.1562,-3.1565,-3.1567,0,0,0,0,0,0,0,0,0,0,0,0,0,-3.1548,-3.1523,-3.1602,-3.1571,-3.1568,-3.1617,-3.1617,-3.1617,-3.1551,-3.1548,-3.1545,-3.1543,-3.1561,-3.1564,-3.1568,-3.1648,0,0,-3.1578,-3.158,0,0,0,0,0,0,0,0,-3.1546,-3.1551,-3.1575,-3.1573,-3.157,-3.1579,-3.1595,-3.1628,-3.1552,-3.1558,-3.1545,-3.1541,-3.1571,-3.1573,-3.1582,-3.1649,-3.1649,-3.1579,-3.1581,-3.1582,-3.1583,0,0,0,0,0,0,0,-3.1545,-3.155,-3.1608,-3.1576,-3.1573,-3.1558,-3.1558,-3.1601,-3.1581,-3.1557,-3.1552,-3.1555,-3.1569,-3.1579,-3.1582,-3.165,-3.1578,-3.1582,-3.1584,-3.1585,-3.1785,-3.1789,0,0,0,0,0,0,-3.1546,-3.1549,-3.1608,-3.1608,-3.1551,-3.1562,-3.1562,-3.1579,-3.158,-3.1577,-3.1557,-3.1552,-3.1575,-3.1578,-3.1583,-3.1678,-3.1582,-3.1585,-3.1587,-3.1782,-3.1786,-3.179,0,0,0,0,0,0,-3.1545,-3.1552,-3.1607,-3.1577,-3.1583,-3.1566,-3.1586,-3.1581,-3.1591,-3.158,-3.1576,-3.1571,-3.1572,-3.1578,-3.1632,-3.1678,-3.1587,-3.159,-3.1778,-3.1783,-3.1788,-3.187,0,0,0,0,0,0,-3.1543,-3.1552,-3.1581,-3.1578,-3.1585,-3.1656,-3.1588,-3.1583,-3.1597,-3.159,-3.1592,-3.159,-3.1571,-3.1628,-3.1636,-3.1681,-3.1593,-3.1774,-3.1781,-3.1786,-3.1863,-3.1877,-3.1889,0,0,0,0,0,-3.154,-3.1604,-3.1583,-3.159,-3.1621,-3.1658,-3.1662,-3.1638,-3.1601,-3.1631,-3.1624,-3.159,-3.1671,-3.1634,-3.1643,-3.169,-3.1771,-3.1779,-3.1786,-3.1857,-3.1874,-3.1888,0,0,0,0,0,0,-3.1613,-3.1603,-3.158,-3.1644,-3.1653,-3.1647,-3.1684,-3.1656,-3.1676,-3.1668,-3.1638,-3.1639,-3.17,-3.17,-3.1658,-3.1769,-3.1715,-3.1725,-3.1766,-3.1782,-3.1795,-3.1795,-3.1596,0,0,0,0,0,-3.1636,-3.1666,-3.1656,-3.1714,-3.1719,-3.1701,-3.1716,-3.1697,-3.1705,-3.1708,-3.1705,-3.1716,-3.1744,-3.1763,-3.1788,-3.1862,-3.1863,-3.1899,-3.1912,-3.1923,-3.1932,-3.1974,-3.1991,-3.1814,-3.1814,-3.1813,0,0,-3.1685,-3.1683,-3.1704,-3.1728,-3.1733,-3.1766,-3.1705,-3.1742,-3.1767,-3.1714,-3.1766,-3.1765,-3.1774,-3.184,-3.1869,-3.1842,-3.1981,-3.1932,-3.1941,-3.1944,-3.1983,-3.2,-3.2015,-3.1819,-3.1818,-3.1817,0,0,-3.1791,-3.1792,-3.1841,-3.1847,-3.1854,-3.1842,-3.1854,-3.1853,-3.185,-3.1902,-3.1863,-3.1894,-3.1942,-3.1951,-3.1962,-3.2074,-3.2045,-3.2083,-3.2151,-3.2193,-3.2207,-3.2219,-3.2262,-3.2277,-3.2092,-3.2092,-3.2092,0,-3.1851,-3.1899,-3.187,-3.1911,-3.1924,-3.1877,-3.1929,-3.1936,-3.1952,-3.1963,-3.1932,-3.1993,-3.1996,-3.2064,-3.2092,-3.2102,-3.2116,-3.2083,-3.2207,-3.2219,-3.223,-3.227,-3.2286,-3.2097,-3.2096,-3.2096,-3.2095,0,-3.1974,-3.2008,-3.2047,-3.2063,-3.208,-3.2126,-3.2106,-3.2127,-3.2107,-3.2099,-3.2153,-3.2155,-3.2181,-3.2196,-3.2176,-3.2263,-3.2246,-3.2212,-3.2158,-3.2252,-3.229,-3.2305,-3.2104,-3.2102,-3.2101,-3.2099,0,0,-3.2126,-3.2127,-3.2142,-3.215,-3.2155,-3.2182,-3.2226,-3.2251,-3.2271,-3.2284,-3.2322,-3.2365,-3.2334,-3.2347,-3.2328,-3.2364,-3.2456,-3.2325,-3.2325,-3.2352,-3.2555,-3.2582,-3.2601,-3.2436,-3.2439,-3.2441,-3.2555,0,-3.2232,-3.2307,-3.2284,-3.2361,-3.2393,-3.235,-3.239,-3.2399,-3.2392,-3.242,-3.2414,-3.2446,-3.2401,-3.2409,-3.2442,-3.2438,-3.2497,-3.2429,-3.2474,-3.2476,-3.2475,-3.262,-3.2648,-3.2756,-3.2569,-3.2572,-3.2573,0,-3.2365,-3.2383,-3.2464,-3.2466,-3.2479,-3.2514,-3.2537,-3.2563,-3.2573,-3.2566,-3.2582,-3.2556,-3.2602,-3.2547,-3.2612,-3.2566,-3.2583,-3.2584,-3.2588,-3.2592,-3.2532,-3.2631,-3.2789,-3.2806,-3.2596,-3.2594,-3.2592,0,-3.2471,-3.2516,-3.257,-3.2578,-3.2581,-3.2608,-3.2611,-3.2617,-3.2635,-3.2655,-3.2666,-3.2691,-3.2706,-3.2727,-3.2709,-3.267,-3.2778,-3.2721,-3.2776,-3.2777,-3.2802,-3.2801,-3.2967,-3.2809,-3.2809,-3.2809,-3.2808,0,-3.2593,-3.2644,-3.2618,-3.2652,-3.2709,-3.2682,-3.274,-3.2738,-3.2745,-3.2779,-3.2744,-3.2777,-3.2751,-3.2782,-3.2769,-3.2827,-3.2833,-3.283,-3.2827,-3.2835,-3.2836,-3.2847,-3.284,-3.2813,-3.2812,-3.2811,-3.2811,0,-3.2721,-3.2705,-3.2762,-3.2761,-3.2762,-3.2805,-3.2805,-3.2837,-3.2828,-3.2872,-3.2881,-3.2869,-3.2904,-3.2889,-3.2926,-3.2917,-3.2992,-3.2977,-3.2988,-3.2985,-3.3042,-3.3038,-3.3224,-3.3248,-3.3072,-3.3074,-3.3075,0,-3.2801,-3.2839,-3.2843,-3.2863,-3.2868,-3.2901,-3.2918,-3.2894,-3.2915,-3.293,-3.2962,-3.2994,-3.3018,-3.3078,-3.3073,-3.3102,-3.3089,-3.3152,-3.3093,-3.3101,-3.3093,-3.3092,-3.3097,-3.3165,-3.3167,-3.3168,-3.317,0,-3.2945,-3.2935,-3.2962,-3.2986,-3.3008,-3.3027,-3.3042,-3.3061,-3.3038,-3.3063,-3.3098,-3.3117,-3.3156,-3.319,-3.3216,-3.322,-3.3193,-3.3188,-3.3203,-3.3213,-3.3219,-3.3219,-3.3023,-3.3184,-3.3183,-3.3182,-3.3181,-3.318,-3.3053,-3.3086,-3.3094,-3.3126,-3.3135,-3.315,-3.3181,-3.3177,-3.3206,-3.3236,-3.322,-3.3262,-3.3274,-3.3306,-3.3315,-3.3349,-3.3325,-3.3345,-3.3351,-3.3357,-3.3366,-3.3212,-3.3354,-3.3353,-3.3353,-3.3353,-3.3352,0,-3.3197,-3.32,-3.3229,-3.3252,-3.3278,-3.3248,-3.3264,-3.3288,-3.3325,-3.3338,-3.3363,-3.3406,-3.3439,-3.3437,-3.3468,-3.3496,-3.3485,-3.3506,-3.3504,-3.3507,-3.3385,-3.337,-3.3515,-3.3515,-3.3515,-3.3515,-3.3515,-3.3515,-3.3275,-3.3331,-3.3323,-3.3384,-3.3387,-3.3428,-3.344,-3.3456,-3.3466,-3.3515,-3.3542,-3.354,-3.3548,-3.358,-3.361,-3.3609,-3.3623,-3.365,-3.3644,-3.3531,-3.3515,-3.3499,-3.3486,-3.3652,-3.3652,-3.3763,-3.3764,-3.3765]},{"header":{"parameterUnit":"m.s-1","parameterCategory":1,"la1":30.2991,"la2":30.254,"lo1":-89.0895,"lo2":-89.0444,"dy":0.0017,"dx":0.0017,"nx":28,"ny":28,"refTime":"2025-02-11T03:00:00:Z","depth":0,"parameterNumber":3,"parameterNumberName":"V-component_of_WINDS"},"data":[0,0,0,0,0,0,0,0,0,0,0,0,0,0,0,0,0,0,0,0,0,0,0,0,0,0,0,0,0,0,0,0,0,0,0,0,0,0,0,0,0,0,0,0,0,0,0,0,0,0,0,0,0,0,0,0,0,0,-0.0273,-0.0274,0,-0.0375,-0.0377,-0.0378,-0.0453,-0.0454,-0.0454,-0.0455,-0.0564,-0.0566,-0.0568,0,0,0,0,0,0,0,0,0,0,0,0,0,-0.0145,-0.0147,-0.0273,-0.0274,-0.0275,-0.0375,-0.0377,-0.0378,-0.0453,-0.0454,-0.0454,-0.0455,-0.0563,-0.0566,-0.0568,0,0,0,0,0,0,0,0,0,0,0,0,0,-0.0219,-0.0148,-0.0272,-0.0324,-0.033,-0.0375,-0.0377,-0.0378,-0.0453,-0.0454,-0.0455,-0.0455,-0.0562,-0.0565,-0.0569,-0.0571,0,0,-0.0579,-0.0581,0,0,0,0,0,0,0,0,-0.0215,-0.0224,-0.0315,-0.0321,-0.0327,-0.0402,-0.0372,-0.0443,-0.0452,-0.0406,-0.0455,-0.0456,-0.0509,-0.0517,-0.0535,-0.0576,-0.0581,-0.058,-0.0582,-0.0583,-0.0584,0,0,0,0,0,0,0,-0.021,-0.022,-0.0313,-0.0317,-0.0324,-0.0344,-0.0356,-0.0386,-0.0451,-0.041,-0.0416,-0.0427,-0.0513,-0.0531,-0.0538,-0.0583,-0.058,-0.0583,-0.0585,-0.0586,-0.0634,-0.0633,0,0,0,0,0,0,-0.0196,-0.0215,-0.031,-0.0316,-0.0272,-0.0345,-0.0358,-0.0377,-0.0451,-0.0463,-0.0426,-0.043,-0.0525,-0.0534,-0.0542,-0.0551,-0.0583,-0.0587,-0.0589,-0.0635,-0.0634,-0.0633,0,0,0,0,0,0,-0.0193,-0.0204,-0.0306,-0.0267,-0.0282,-0.0347,-0.0367,-0.0379,-0.0397,-0.0463,-0.0476,-0.0432,-0.0526,-0.0537,-0.0564,-0.0556,-0.0588,-0.0591,-0.0636,-0.0634,-0.0633,-0.0569,0,0,0,0,0,0,-0.0189,-0.0202,-0.0203,-0.0267,-0.0284,-0.0325,-0.0367,-0.038,-0.0402,-0.0409,-0.0472,-0.0484,-0.0527,-0.0558,-0.0567,-0.0562,-0.0594,-0.0637,-0.0635,-0.0634,-0.0572,-0.0566,-0.056,0,0,0,0,0,-0.0184,-0.0181,-0.0202,-0.0213,-0.0286,-0.0324,-0.0334,-0.0383,-0.0401,-0.0403,-0.0446,-0.0482,-0.0555,-0.056,-0.0571,-0.0566,-0.0637,-0.0636,-0.0634,-0.0575,-0.0567,-0.056,0,0,0,0,0,0,-0.0116,-0.019,-0.0215,-0.0232,-0.0271,-0.0336,-0.0341,-0.0373,-0.0408,-0.0413,-0.0474,-0.0487,-0.0508,-0.054,-0.0544,-0.0574,-0.0601,-0.0601,-0.0552,-0.0545,-0.054,-0.0532,-0.0597,0,0,0,0,0,-0.0102,-0.0126,-0.019,-0.0199,-0.0217,-0.0275,-0.0294,-0.0328,-0.0372,-0.0389,-0.0433,-0.0475,-0.0508,-0.0528,-0.0562,-0.0576,-0.0593,-0.0579,-0.0573,-0.0568,-0.0568,-0.058,-0.0575,-0.0627,-0.0627,-0.0627,0,0,-0.0075,-0.0119,-0.0131,-0.0187,-0.0221,-0.0246,-0.0289,-0.0313,-0.0332,-0.0393,-0.0421,-0.0455,-0.0506,-0.0527,-0.0538,-0.0554,-0.0557,-0.0565,-0.056,-0.0564,-0.0578,-0.0573,-0.0568,-0.0626,-0.0626,-0.0626,0,0,-0.004,-0.0074,-0.0086,-0.0119,-0.017,-0.0209,-0.0211,-0.0272,-0.0297,-0.0325,-0.0372,-0.0396,-0.0451,-0.0486,-0.051,-0.0488,-0.0523,-0.0497,-0.0467,-0.0478,-0.0474,-0.0471,-0.0465,-0.0461,-0.0496,-0.0496,-0.0496,0,-0.0,-0.0038,-0.0089,-0.011,-0.0134,-0.0189,-0.0203,-0.0233,-0.0292,-0.0308,-0.0324,-0.0395,-0.0432,-0.0463,-0.0458,-0.0475,-0.0482,-0.0491,-0.047,-0.0467,-0.0465,-0.046,-0.0457,-0.0493,-0.0493,-0.0494,-0.0494,0,0.0012,-0.0014,-0.0018,-0.0073,-0.0097,-0.0115,-0.0169,-0.0188,-0.022,-0.0257,-0.0287,-0.0334,-0.0379,-0.0389,-0.042,-0.0425,-0.0433,-0.0458,-0.0487,-0.0456,-0.0452,-0.0451,-0.0488,-0.0489,-0.049,-0.0491,0,0,0.0087,0.0004,0.0003,-0.0023,-0.0083,-0.0105,-0.0125,-0.0168,-0.0184,-0.0223,-0.0243,-0.0288,-0.0312,-0.034,-0.0376,-0.0386,-0.0367,-0.0411,-0.0413,-0.0403,-0.0377,-0.0359,-0.0355,-0.039,-0.039,-0.039,-0.0373,0,0.0111,0.0073,0.0027,0.0003,-0.0022,-0.0074,-0.0093,-0.0132,-0.0167,-0.0195,-0.0235,-0.0266,-0.0295,-0.0312,-0.0324,-0.0367,-0.0363,-0.0368,-0.0411,-0.0412,-0.0399,-0.0353,-0.0334,-0.0316,-0.0372,-0.0372,-0.0372,0,0.0135,0.0099,0.0074,0.0015,0.0003,-0.0013,-0.0056,-0.0081,-0.0128,-0.0153,-0.0184,-0.0223,-0.0249,-0.0273,-0.0311,-0.0313,-0.0333,-0.0357,-0.0358,-0.0365,-0.0391,-0.0362,-0.0312,-0.031,-0.037,-0.037,-0.037,0,0.019,0.0135,0.0112,0.0092,0.0023,0.0014,-0.0016,-0.0063,-0.0086,-0.0124,-0.014,-0.0181,-0.0204,-0.0236,-0.0285,-0.0298,-0.0318,-0.0346,-0.0342,-0.0341,-0.0346,-0.0345,-0.03,-0.0355,-0.0355,-0.0355,-0.0355,0,0.0221,0.0207,0.0136,0.0122,0.0104,0.0051,0.0034,-0.0,-0.0042,-0.0065,-0.0112,-0.0133,-0.0196,-0.0225,-0.0264,-0.0291,-0.03,-0.0323,-0.0333,-0.032,-0.0317,-0.0335,-0.0339,-0.0354,-0.0354,-0.0354,-0.0355,0,0.0278,0.0231,0.0202,0.014,0.0124,0.0113,0.0059,0.0042,0.0005,-0.0024,-0.0034,-0.0093,-0.013,-0.0182,-0.0234,-0.026,-0.0282,-0.0298,-0.0266,-0.0273,-0.0266,-0.0267,-0.0233,-0.0233,-0.0285,-0.0284,-0.0284,0,0.03,0.0288,0.0225,0.0207,0.0179,0.0151,0.0127,0.0074,0.0051,-0.0003,-0.0013,-0.0053,-0.0088,-0.0144,-0.0193,-0.0234,-0.0252,-0.0237,-0.0259,-0.0245,-0.0255,-0.0254,-0.0256,-0.0233,-0.0232,-0.0231,-0.0231,0,0.0344,0.0321,0.0289,0.025,0.0223,0.0189,0.0152,0.014,0.0079,0.0055,0.0018,-0.0009,-0.0062,-0.0102,-0.0149,-0.0181,-0.0217,-0.0223,-0.0225,-0.0212,-0.0194,-0.0206,-0.0254,-0.0225,-0.0225,-0.0226,-0.0226,-0.0226,0.0382,0.0369,0.0322,0.0288,0.0255,0.0222,0.0203,0.0164,0.0132,0.0086,0.0056,0.002,-0.0028,-0.0095,-0.0125,-0.0155,-0.017,-0.0171,-0.0172,-0.0173,-0.0169,-0.0187,-0.0164,-0.0164,-0.0164,-0.0165,-0.0165,0,0.0422,0.0389,0.0359,0.031,0.0283,0.0254,0.0212,0.019,0.016,0.0119,0.0086,0.0043,0.0004,-0.0048,-0.0091,-0.0105,-0.0123,-0.0115,-0.0115,-0.0123,-0.0152,-0.0147,-0.01,-0.01,-0.01,-0.01,-0.01,-0.01,0.0439,0.0414,0.0385,0.0343,0.031,0.0275,0.0253,0.0222,0.0189,0.0143,0.0111,0.0079,0.0033,-0.0014,-0.0051,-0.0066,-0.008,-0.0068,-0.0087,-0.0114,-0.012,-0.0126,-0.0122,-0.007,-0.007,-0.0056,-0.0055,-0.0055]}]]